カタログに戻る

SL-16 DEB

LostLEO
NORAD 39713·DEBRIS·🇷🇺 Russia

打ち上げ Dec 25, 1992 から Baikonur Cosmodrome

Loading…

次のパス (今後24時間)

TLE

古いSource: Space-Track

元期: Aug 12, 2025, 00:34 UTC

1 39713U 92093KD  25224.02384787  .00001582  00000-0  81968-3 0  9991
2 39713  71.0917 355.0854 0082489 159.9805 200.4587 14.14621139582618

AllMySatでSL-16 DEBをリアルタイム追跡

Download on the App Store